TimeCST,TemperatureF,Dew PointF,Humidity,Sea Level PressureIn,VisibilityMPH,Wind Direction,Wind SpeedMPH,Gust SpeedMPH,PrecipitationIn,Events,Conditions,WindDirDegrees,DateUTC
12:15 AM,17.6,8.6,68,30.35,10.0,NW,5.8,-,N/A,,Clear,320,2012-11-27 06:15:00
12:35 AM,15.8,8.6,73,30.36,10.0,NW,4.6,-,N/A,,Clear,320,2012-11-27 06:35:00
12:55 AM,15.8,8.6,73,30.35,10.0,NNW,3.5,-,N/A,,Clear,330,2012-11-27 06:55:00
1:15 AM,15.8,8.6,73,30.35,10.0,NW,4.6,-,N/A,,Clear,310,2012-11-27 07:15:00
1:35 AM,15.8,8.6,73,30.35,10.0,NW,3.5,-,N/A,,Clear,310,2012-11-27 07:35:00
1:55 AM,15.8,8.6,73,30.36,10.0,NW,3.5,-,N/A,,Clear,310,2012-11-27 07:55:00
2:15 AM,14.0,8.6,79,30.36,10.0,NW,3.5,-,N/A,,Clear,320,2012-11-27 08:15:00
2:35 AM,14.0,8.6,79,30.35,10.0,WNW,3.5,-,N/A,,Clear,300,2012-11-27 08:35:00
2:55 AM,14.0,8.6,79,30.35,10.0,WNW,3.5,-,N/A,,Clear,290,2012-11-27 08:55:00
3:15 AM,14.0,8.6,79,30.35,10.0,WNW,5.8,-,N/A,,Clear,290,2012-11-27 09:15:00
3:35 AM,14.0,8.6,79,30.35,10.0,WNW,3.5,-,N/A,,Clear,290,2012-11-27 09:35:00
3:55 AM,14.0,8.6,79,30.35,10.0,Calm,Calm,-,N/A,,Clear,0,2012-11-27 09:55:00
4:15 AM,12.2,8.6,85,30.35,10.0,Calm,Calm,-,N/A,,Clear,0,2012-11-27 10:15:00
4:35 AM,12.2,8.6,85,30.34,10.0,Calm,Calm,-,N/A,,Clear,0,2012-11-27 10:35:00
5:45 AM,10.4,6.8,85,30.35,10.0,South,3.5,-,N/A,,Clear,190,2012-11-27 11:45:00
6:45 AM,8.6,5.0,85,30.35,10.0,Calm,Calm,-,N/A,,Clear,0,2012-11-27 12:45:00
7:45 AM,12.2,8.6,85,30.36,10.0,WSW,4.6,-,N/A,,Clear,240,2012-11-27 13:45:00
8:45 AM,15.8,10.4,79,30.36,10.0,SW,4.6,-,N/A,,Clear,230,2012-11-27 14:45:00
9:45 AM,21.2,10.4,63,30.37,10.0,WSW,9.2,-,N/A,,Clear,240,2012-11-27 15:45:00
10:45 AM,24.8,10.4,54,30.36,10.0,West,6.9,-,N/A,,Clear,260,2012-11-27 16:45:00
11:45 AM,26.6,12.2,55,30.33,10.0,SW,8.1,-,N/A,,Scattered Clouds,230,2012-11-27 17:45:00
12:45 PM,26.6,10.4,51,30.30,10.0,SW,8.1,-,N/A,,Mostly Cloudy,230,2012-11-27 18:45:00
1:45 PM,28.4,10.4,47,30.27,10.0,WSW,10.4,-,N/A,,Mostly Cloudy,240,2012-11-27 19:45:00
2:45 PM,28.4,10.4,47,30.24,10.0,SSW,8.1,-,N/A,,Mostly Cloudy,210,2012-11-27 20:45:00
4:45 PM,24.8,10.4,54,30.22,10.0,South,3.5,-,N/A,,Clear,190,2012-11-27 22:45:00
6:45 PM,24.8,12.2,59,30.21,10.0,SSW,8.1,-,N/A,,Overcast,210,2012-11-28 00:45:00
7:45 PM,37.4,12.2,36,30.21,10.0,SW,8.1,-,N/A,,Overcast,220,2012-11-28 01:45:00
8:15 PM,26.6,14.0,59,30.20,10.0,SW,8.1,-,N/A,,Overcast,220,2012-11-28 02:15:00
8:35 PM,26.6,14.0,59,30.20,10.0,SW,8.1,-,N/A,,Overcast,230,2012-11-28 02:35:00
8:45 PM,26.6,12.2,55,30.20,10.0,SW,8.1,-,N/A,,Overcast,230,2012-11-28 02:45:00
8:55 PM,26.6,14.0,59,30.20,10.0,SW,8.1,-,N/A,,Overcast,230,2012-11-28 02:55:00
9:15 PM,26.6,14.0,59,30.20,10.0,WSW,10.4,16.1,N/A,,Mostly Cloudy,240,2012-11-28 03:15:00
9:35 PM,26.6,14.0,59,30.20,10.0,WSW,8.1,-,N/A,,Overcast,240,2012-11-28 03:35:00
9:55 PM,28.4,14.0,55,30.20,10.0,WSW,10.4,18.4,N/A,,Overcast,240,2012-11-28 03:55:00
10:15 PM,28.4,14.0,55,30.20,10.0,WSW,10.4,-,N/A,,Overcast,240,2012-11-28 04:15:00
10:35 PM,28.4,14.0,55,30.20,10.0,WSW,10.4,16.1,N/A,,Overcast,240,2012-11-28 04:35:00
10:55 PM,28.4,14.0,55,30.20,10.0,WSW,6.9,-,N/A,,Overcast,250,2012-11-28 04:55:00
11:15 PM,28.4,14.0,55,30.20,10.0,WSW,9.2,17.3,N/A,,Overcast,250,2012-11-28 05:15:00
11:35 PM,28.4,14.0,55,30.20,10.0,WSW,8.1,-,N/A,,Overcast,250,2012-11-28 05:35:00
11:55 PM,28.4,15.8,59,30.20,10.0,WSW,8.1,-,N/A,,Overcast,240,2012-11-28 05:55:00